Satellite-Ground Cal/Val Site Overpasses Predictions

Prediction of Satellite NPP Overpassing Cal/Val Site: Antarctic Dome C

Ground Cal/Val Site Location: Latitude: -75.10, Longitude: 123.35; Satellite-Ground Site NADIR distance within 100 km.

Table of predicted overpasses for the next 14.0 days since TLE Epoch: 9/14/2018
Interval Starting Time Ending Time Minimum Distance Time Minimum Distance (km)
1 09/15/2018 07:38:09 09/15/2018 07:38:36 09/15/2018 07:38:22 33.74
2 09/16/2018 07:19:23 09/16/2018 07:19:42 09/16/2018 07:19:33 76.45
3 09/18/2018 15:01:39 09/18/2018 15:02:02 09/18/2018 15:01:51 58.91
4 09/19/2018 14:42:49 09/19/2018 14:43:15 09/19/2018 14:43:02 50.17
5 09/20/2018 07:44:31 09/20/2018 07:44:52 09/20/2018 07:44:41 69.02
6 09/21/2018 07:25:39 09/21/2018 07:26:06 09/21/2018 07:25:52 38.96
7 09/23/2018 15:08:07 09/23/2018 15:08:14 09/23/2018 15:08:10 96.70
8 09/24/2018 14:49:07 09/24/2018 14:49:36 09/24/2018 14:49:21 14.47


NCC Satellite Cal/Val Overpasses Prediction Service
